This is the latest recevied weather packets stored in our database for station/object KB4NWJ. If no packets are shown the sender has not sent any weather packets the latest 10 day(s).
| Time | Temp. | Humidity | Pressure | Rain* | Wind** | Luminosity | Snow |
|---|---|---|---|---|---|---|---|
| 1777157289 | 22.78° C | 80% | 1010.2 hPa | 0 mm | - | 137 W/m² | - |
| 1777156989 | 23.33° C | 79% | 1010.2 hPa | 0 mm | - | 180 W/m² | - |
| 1777156689 | 23.33° C | 80% | 1010.2 hPa | 0 mm | - | 209 W/m² | - |
| 1777156386 | 22.78° C | 79% | 1010.1 hPa | 0 mm | - | 269 W/m² | - |
| 1777156082 | 22.22° C | 83% | 1010.2 hPa | 0 mm | - | 189 W/m² | - |
| 1777155778 | 22.22° C | 84% | 1010.3 hPa | 0 mm | - | 115 W/m² | - |
| 1777155474 | 22.22° C | 82% | 1010.2 hPa | 0 mm | - | 115 W/m² | - |
| 1777155171 | 22.22° C | 83% | 1010.1 hPa | 0 mm | - | 122 W/m² | - |
| 1777154868 | 22.78° C | 83% | 1010.1 hPa | 0 mm | - | 127 W/m² | - |
| 1777154565 | 22.78° C | 82% | 1010.2 hPa | 0 mm | - | 134 W/m² | - |
| 1777154261 | 22.78° C | 82% | 1010.5 hPa | 0 mm | - | 163 W/m² | - |
| 1777153957 | 22.78° C | 82% | 1010.4 hPa | 0 mm | - | 212 W/m² | - |
| 1777153653 | 22.22° C | 82% | 1010.4 hPa | 0 mm | - | 249 W/m² | - |
| 1777153349 | 22.22° C | 84% | 1010.3 hPa | 0 mm | - | 170 W/m² | - |
| 1777153045 | 22.22° C | 83% | 1010.3 hPa | 0 mm | - | 129 W/m² | - |
| 1777152742 | 22.22° C | 82% | 1010.5 hPa | 0 mm | - | 127 W/m² | - |
| 1777152439 | 22.78° C | 82% | 1010.1 hPa | 0 mm | - | 189 W/m² | - |
| 1777152136 | 22.78° C | 83% | 1010.2 hPa | 0 mm | - | 188 W/m² | - |
| 1777151836 | 22.78° C | 83% | 1010.3 hPa | 0 mm | - | 186 W/m² | - |
| 1777151532 | 22.22° C | 84% | 1010.1 hPa | 0 mm | - | 225 W/m² | - |
| 1777151228 | 22.78° C | 82% | 1010.1 hPa | 0 mm | - | 194 W/m² | - |
| 1777150924 | 22.22° C | 84% | 1010.3 hPa | 0 mm | - | 206 W/m² | - |
| 1777150618 | 22.22° C | 84% | 1010.3 hPa | 0 mm | - | 196 W/m² | - |
| 1777150314 | 22.22° C | 83% | 1010.2 hPa | 0 mm | - | 232 W/m² | - |
| 1777150012 | 22.22° C | 82% | 1010.3 hPa | 0 mm | - | 256 W/m² | - |
* Rain latest hour (hover to see other rain measurements)
** Current wind speed in m/s (hover to see current wind gust speed)